COSMOS 249 DEB

Satellite information

Favourite Embed

Satellite Type and Status

DEBRISIN ORBIT

Key statistics

Satellite COSMOS 249 DEB at a glance.

Uptime

20820

Days in orbit

Revolutions

≈ 13.0

Per day

Orbit

LEO

Low Earth Orbit

Inclination

62.3

Latest

Satellite identification and parameters

Extended collection of information and parameters for COSMOS 249 DEB.

Object identification

Identified? True

Debris? True

Object name: COSMOS 249 DEB

International designator: 1968-091DA

Object number (NORAD): 15775

Object ID (CCSDS): 15775

Country: COMMONWEALTH OF INDEPENDENT STATES (CIS)

Current information (Y/N): Y

RCS size: SMALL

Orbital parameters

Period: 110.901 minutes

Inclination: 62.3003 deg

SMA: 7646.289 km

Apoapsis: 1771.504 km

Periapsis: 764.804 km

RAAN: 314.234 deg

Eccentricy: 0.06582935

Argument of periapsis: 275.2666 deg

Mean anomaly: 77.3595 deg

Mean motion: 12.98454407 rev/day

Mean motion (dot): 0.00004494 rev/day2

B* drag term: 0.0056316862 1/REarth

Two-line elements (TLE)

Creation date: Oct. 20, 2025, 10:26 a.m.

Reference frame: TEME

Reference center: EARTH

Epoch: Oct. 20, 2025, 1:02 a.m. UTC

TLE line 0: 0 COSMOS 249 DEB

TLE line 1: 1 15775U 68091DA 25293.04350127 .00004494 00000-0 56317-2 0 9997

TLE line 2: 2 15775 62.3003 314.2340 0658293 275.2666 77.3595 12.98454407536391

Live tracking on map

Real-time ground track for satellite COSMOS 249 DEB.

In-orbit conjunctions

A list of the most updated potential collisions computed for object COSMOS 249 DEB.

Target Orbit TCA Probability of collision Miss distance Type
SL-8 R/B LEO 2025-10-21 05:56:38 0.0001258156 177.0 (m) ROCKET BODY
COSMOS 1655 LEO 2025-08-25 11:31:22 0.0004098195 548.0 (m) PAYLOAD

Associated space launch

The I2P satellites were the first soviet coorbital ASAT system.

COSMOS 249 DEB was lifted into orbit during the mission ‘Tsiklon-2A | I2P 1’, on board a Tsiklon-2A space rocket.

The launch took place on Oct. 20, 1968, 4:02 a.m. from 90/20.

For more information about the launch, click the button.

Launch to space Tsiklon-2A | I2P 1
Tsiklon-2A | I2P 1

Agency: N/A

Status: Launch Successful

Launch date: Oct. 20, 1968, 4:02 a.m. UTC

Rocket: Tsiklon-2A

Launch pad: 90/20

Location: Baikonur Cosmodrome, Republic of Kazakhstan

...

Latest news about this satellite

There are no fresh news available about this satellite. Check back as we update our databases every day.


Newsletter sign-up

Weekly statistics, charts and insights to help you stay on top of the space industry.